Location: Chequamegon National Forest
(46.1070°N, 90.8420°W)
Time: 04:02:27
(UTC-05:00)

ISS - All Passes

Search period start: 01 November 2014 00:00
Search period end: 10 November 2014 23:00
Orbit: 412 x 417 km, 51.6° (Epoch: 01 November)

Date Brightness Start Highest point End Pass type
(mag) Time Alt. Az. Time Alt. Az. Time Alt. Az.
01 Nov - 10:26:23 10° SW 10:29:32 42° SE 10:32:42 10° ENE daylight
01 Nov - 12:03:02 10° W 12:06:14 44° NNW 12:09:28 10° ENE daylight
01 Nov - 13:40:25 10° WNW 13:43:26 30° N 13:46:26 10° ENE daylight
01 Nov - 15:17:13 10° WNW 15:20:32 60° NNE 15:23:51 10° ESE daylight
01 Nov - 16:54:13 10° W 16:57:02 26° SW 16:59:51 10° SSE daylight
02 Nov - 08:37:38 10° SSW 08:40:27 26° SE 08:43:17 10° E daylight
02 Nov - 10:13:40 10° WSW 10:16:57 59° NNW 10:20:16 10° ENE daylight
02 Nov - 11:51:04 10° WNW 11:54:04 30° N 11:57:04 10° ENE daylight
02 Nov - 13:28:01 10° WNW 13:31:15 45° NNE 13:34:28 10° E daylight
02 Nov - 15:04:46 10° WNW 15:07:57 41° SW 15:11:06 10° SE daylight
03 Nov - 07:49:15 10° S 07:51:23 16° SE 07:53:32 10° E daylight
03 Nov - 09:24:21 10° WSW 09:27:41 86° NNW 09:31:02 10° ENE daylight
03 Nov - 11:01:37 10° WNW 11:04:40 32° N 11:07:43 10° ENE daylight
03 Nov - 12:38:46 10° WNW 12:41:53 36° NNE 12:45:01 10° E daylight
03 Nov - 14:15:26 10° WNW 14:18:45 67° SSW 14:22:04 10° SE daylight
03 Nov - 15:53:58 10° WSW 15:54:53 11° SW 15:55:47 10° SSW daylight
04 Nov - 08:35:09 10° SW 08:38:25 61° SSE 08:41:43 10° ENE daylight
04 Nov - 10:12:07 10° W 10:15:15 37° NNW 10:18:24 10° ENE daylight
04 Nov - 11:49:25 10° WNW 11:52:28 32° N 11:55:30 10° ENE daylight
04 Nov - 13:26:08 10° WNW 13:29:29 80° NNE 13:32:49 10° ESE daylight
04 Nov - 15:03:28 10° W 15:05:49 18° SW 15:08:10 10° S daylight
05 Nov - 07:46:06 10° SSW 07:49:11 37° SE 07:52:17 10° ENE daylight
05 Nov - 09:22:36 10° W 09:25:50 47° NNW 09:29:04 10° ENE daylight
05 Nov - 11:00:00 10° WNW 11:02:59 30° N 11:05:59 10° ENE daylight
05 Nov - 12:36:49 10° WNW 12:40:06 55° NNE 12:43:23 10° E daylight
05 Nov - 14:13:43 10° W 14:16:39 29° SW 14:19:35 10° SSE daylight
06 Nov - 06:57:17 10° SSW 06:59:58 23° SE 07:02:39 10° E daylight
06 Nov - 08:33:06 10° WSW 08:36:24 65° NNW 08:39:43 10° ENE daylight
06 Nov - 10:10:28 10° WNW 10:13:28 30° N 10:16:29 10° ENE daylight
06 Nov - 11:47:28 10° WNW 11:50:40 42° NNE 11:53:51 10° E daylight
06 Nov - 13:24:10 10° WNW 13:27:24 47° SW 13:30:36 10° SE daylight
07 Nov - 06:08:56 10° SSE 06:10:46 14° SE 06:12:37 10° E visible
07 Nov - 07:43:41 10° WSW 07:47:00 85° SSE 07:50:20 10° ENE daylight
07 Nov - 09:20:52 10° WNW 09:23:56 33° N 09:27:00 10° ENE daylight
07 Nov - 10:58:03 10° WNW 11:01:09 34° N 11:04:14 10° ENE daylight
07 Nov - 12:34:43 10° WNW 12:38:03 76° SSW 12:41:22 10° SE daylight
07 Nov - 14:12:43 10° WSW 14:14:13 13° SW 14:15:43 10° SSW daylight
08 Nov - 06:54:22 10° SW 06:57:36 53° SSE 07:00:51 10° ENE daylight
08 Nov - 08:31:13 10° W 08:34:22 39° NNW 08:37:32 10° ENE daylight
08 Nov - 10:08:33 10° WNW 10:11:34 31° N 10:14:35 10° ENE daylight
08 Nov - 11:45:16 10° WNW 11:48:36 72° NNE 11:51:55 10° ESE daylight
08 Nov - 13:22:26 10° W 13:24:59 21° SW 13:27:32 10° S daylight
09 Nov - 06:05:14 10° SSW 06:08:14 32° SE 06:11:14 10° ENE visible
09 Nov - 07:41:34 10° W 07:44:49 51° NNW 07:48:04 10° ENE daylight
09 Nov - 09:18:57 10° WNW 09:21:56 30° N 09:24:56 10° ENE daylight
09 Nov - 10:55:49 10° WNW 10:59:04 50° NNE 11:02:19 10° E daylight
09 Nov - 12:32:38 10° WNW 12:35:40 33° SW 12:38:41 10° SSE daylight
10 Nov - 05:16:23 10° S 05:18:53 20° SE 05:21:23 10° E visible
10 Nov - 06:51:56 10° WSW 06:55:15 73° NNW 06:58:35 10° ENE daylight
10 Nov - 08:29:16 10° WNW 08:32:16 31° N 08:35:18 10° ENE daylight
10 Nov - 10:06:18 10° WNW 10:09:28 39° NNE 10:12:37 10° E daylight
10 Nov - 11:42:58 10° WNW 11:46:14 54° SSW 11:49:29 10° SE daylight
